Flag for U.S.A. Weather past 2 weeks in Beaumont, Texas, U.S.A.

Now
53 °F

Clear.


Feels Like: 53 °F
Forecast: 51 / 79 °F
Wind: 3 mph from Northeast

Location: Jefferson County Airport

Current Time: Mar 28, 2015 at 4:41:13 AM

Latest Report: Mar 28, 2015 at 3:53 AM


Visibility: 10 mi

Pressure: 30.15 "Hg

Humidity: 72%

Dew point: 44 °F

Location of BeaumontLocation

Historic Weather in Beaumont — Graph

°F

Beaumont temperature yesterday

Maximum temperature yesterday: 79 °F (at 3:53 PM)
Minimum temperature yesterday: 44 °F (at 6:53 AM)
Average temperature yesterday: 61 °F

Past Weeks' High & Low Weather Summary

 TemperatureHumidityPressure
High81 °F (Mar 17, 4:00 PM)100% (Mar 13, 7:53 AM)30.27 "Hg (Mar 13, 7:53 AM)
Low44 °F (Mar 27, 6:53 AM)24% (Mar 27, 3:53 PM)29.86 "Hg (Mar 26, 3:53 AM)
Average66 °F81%30.05 "Hg
* Reported Mar 13 2:53 AM — Mar 28 2:53 AM, Beaumont, Weather by CustomWeather, © 2015

Note: Actual official high and low records may vary slightly from our data, if they occured in-between our weather recording intervals... More about our weather records

Advertising

Beaumont weather history for previous 24 hours

 ConditionsComfort  
Time TempWeatherWind HumidityBarometerVisibility
2:53 AM
Sat, Mar 28
52 °FClear.No wind72%30.15 "Hg10 mi
1:53 AM58 °FClear.7 mph60%30.15 "Hg10 mi
12:53 AM59 °FClear.8 mph64%30.16 "Hg10 mi
11:53 PM
Fri, Mar 27
59 °FClear.6 mph78%30.15 "Hg10 mi
10:53 PM57 °FClear.3 mph90%30.14 "Hg10 mi
9:53 PM57 °FClear.7 mph90%30.12 "Hg10 mi
8:53 PM61 °FClear.5 mph78%30.10 "Hg10 mi
7:53 PM63 °FSunny.7 mph56%30.06 "Hg10 mi
6:53 PM73 °FSunny.8 mph32%30.05 "Hg10 mi
5:53 PM77 °FSunny.13 mph24%30.04 "Hg10 mi
4:53 PM78 °FSunny.13 mph25%30.05 "Hg10 mi
3:53 PM79 °FSunny.13 mph24%30.05 "Hg10 mi
2:53 PM76 °FSunny.9 mph26%30.08 "Hg10 mi
1:53 PM73 °FSunny.9 mph29%30.11 "Hg10 mi
12:53 PM71 °FSunny.7 mph30%30.14 "Hg10 mi
11:53 AM68 °FSunny.9 mph33%30.16 "Hg10 mi
10:53 AM64 °FSunny.10 mph50%30.16 "Hg10 mi
9:53 AM59 °FSunny.7 mph69%30.16 "Hg10 mi
8:53 AM54 °FSunny.3 mph80%30.13 "Hg10 mi
7:53 AM49 °FClear.5 mph93%30.12 "Hg9 mi
6:53 AM44 °FClear.3 mph100%30.12 "Hg7 mi
5:53 AM47 °FClear.No wind93%30.11 "Hg10 mi
4:53 AM48 °FClear.No wind93%30.10 "Hg10 mi
Weather by CustomWeather, © 2015

See weather overviewHow to use our weather pages